TimeCST,TemperatureF,Dew PointF,Humidity,Sea Level PressureIn,VisibilityMPH,Wind Direction,Wind SpeedMPH,Gust SpeedMPH,PrecipitationIn,Events,Conditions,WindDirDegrees,DateUTC
12:55 AM,35.1,25.0,67,30.14,10.0,West,5.8,-,N/A,,Clear,280,2012-01-04 06:55:00
1:55 AM,37.9,25.0,60,30.16,10.0,NW,9.2,-,N/A,,Clear,310,2012-01-04 07:55:00
2:55 AM,42.1,25.0,51,30.19,10.0,NW,15.0,-,N/A,,Clear,320,2012-01-04 08:55:00
3:55 AM,41.0,25.0,53,30.20,10.0,NW,11.5,-,N/A,,Clear,320,2012-01-04 09:55:00
4:55 AM,39.2,24.8,56,30.21,10.0,NW,11.5,-,N/A,,Clear,320,2012-01-04 10:55:00
5:55 AM,37.9,25.0,60,30.27,10.0,NW,10.4,-,N/A,,Clear,320,2012-01-04 11:55:00
6:55 AM,36.0,25.0,64,30.30,10.0,NW,10.4,-,N/A,,Clear,310,2012-01-04 12:55:00
7:55 AM,34.0,24.1,67,30.32,10.0,WNW,8.1,-,N/A,,Clear,300,2012-01-04 13:55:00
8:55 AM,37.4,26.6,65,30.31,10.0,WNW,8.1,-,N/A,,Clear,300,2012-01-04 14:55:00
9:55 AM,42.1,26.1,53,30.35,10.0,WNW,9.2,-,N/A,,Clear,290,2012-01-04 15:55:00
10:55 AM,46.0,27.0,47,30.35,10.0,WNW,8.1,-,N/A,,Clear,290,2012-01-04 16:55:00
11:55 AM,51.1,27.0,39,30.32,10.0,WNW,8.1,-,N/A,,Clear,290,2012-01-04 17:55:00
12:55 PM,54.0,26.1,34,30.29,10.0,WNW,9.2,-,N/A,,Clear,290,2012-01-04 18:55:00
1:55 PM,57.0,27.0,32,30.24,10.0,West,10.4,18.4,N/A,,Clear,260,2012-01-04 19:55:00
2:55 PM,59.0,27.0,29,30.20,10.0,WSW,11.5,19.6,N/A,,Clear,250,2012-01-04 20:55:00
3:55 PM,57.0,25.0,29,30.20,10.0,West,12.7,-,N/A,,Clear,270,2012-01-04 21:55:00
4:55 PM,53.1,25.0,34,30.21,10.0,WSW,6.9,-,N/A,,Clear,250,2012-01-04 22:55:00
5:55 PM,46.9,25.0,42,30.21,10.0,SW,4.6,-,N/A,,Clear,230,2012-01-04 23:55:00
6:55 PM,46.4,28.4,50,30.19,10.0,SW,9.2,-,N/A,,Clear,230,2012-01-05 00:55:00
7:55 PM,46.9,28.0,48,30.21,10.0,SW,12.7,-,N/A,,Clear,230,2012-01-05 01:55:00
8:55 PM,45.0,28.0,52,30.20,10.0,SW,11.5,-,N/A,,Clear,230,2012-01-05 02:55:00
9:55 PM,43.0,28.9,58,30.19,10.0,WSW,10.4,-,N/A,,Clear,240,2012-01-05 03:55:00
10:55 PM,41.0,28.9,62,30.18,10.0,WSW,11.5,-,N/A,,Clear,240,2012-01-05 04:55:00
11:55 PM,39.9,30.0,68,30.16,10.0,WSW,6.9,-,N/A,,Clear,240,2012-01-05 05:55:00